000  
ASUS43 KIND 182109  
RWRIN  
 
WEATHER ROUNDUP FOR INDIANA  
NATIONAL WEATHER SERVICE INDIANAPOLIS IN  
500 PM EDT THU JUL 18 2019  
 
NOTE: "FAIR" INDICATES FEW OR NO CLOUDS BELOW 12,000 FEET WITH NO  
SIGNIFICANT WEATHER AND/OR S TO VISIBILITY
.  
 
* - STATION DOES NOT REPORT WEATHER SUCH AS PRECIPITATION OR FOG.
 
 
+ - STATION NOT QUALITY CONTROLLED BY THE NATIONAL WEATHER SERVICE.  
USE DATA WITH CAUTION...ESPECIALLY DEWPOINT AND RELATIVE  
HUMIDITY OBSERVATIONS.  
 
INZ001>003-010>013-019-020-182200-  
NORTHWEST INDIANA  
 
CITY SKY/WX TMP DP RH WIND PRES REMARKS
 
GARY /AIRPORT/ MOSUNNY 84 73 70 S12G23 29.80F HX 91  
KNOX *+ FAIR 82 72 69 MISG 29.80F  
LA PORTE + FAIR N/A N/A N/A S10G18 29.81F  
MICHIGAN CITY+ FAIR 81 55 41 S13G26 29.78F  
MONTICELLO + FAIR 87 76 69 S7 29.84F HX 97  
RENSSELAER + FAIR 86 77 74 SE13 29.83F HX 97  
VALPARAISO FAIR 85 73 67 S15G25 29.81F HX 91  
 

 
 
LMZ046-743>745-182200-  
SOUTHERN LAKE MICHIGAN  
 
STATION/POSITION TIME TEMP WIND PRES WAVE
 
AIR SEA DIR/SP/G HT  
(UTC) (F) (DEG/KT/KT) (MB) (FT)  
BURNS HARBOR 2040 82 190/ 9/ 15 1008.8F  
MICHIGAN CITY 2040 81 180/ 19/ 24 N/A  
5NW MICH CITY 2100 79 74 200/ 17/ 23 N/A 2  
 

 
 
INZ004-005-014>016-021>024-182200-  
NORTH CENTRAL INDIANA  
 
CITY SKY/WX TMP DP RH WIND PRES REMARKS
 
ELKHART SUNNY N/A N/A N/A S13 29.79F  
GOSHEN FAIR 79 71 76 S13 29.81F  
LOGANSPORT + FAIR 88 75 66 SE8 29.85F HX 97  
PERU/GRISSOM FAIR 89 78 71 SE12 29.85F HX 102  
PLYMOUTH *+ SUNNY 81 73 78 S9G17 29.81F  
ROCHESTER + FAIR 84 72 65 S8 29.85F  
SOUTH BEND FAIR 82 73 74 S14G25 29.79F  
WARSAW + FAIR 79 72 78 S9G16 29.82F  
 

 
 
INZ006>009-017-018-025>027-182200-  
NORTHEAST INDIANA  
 
CITY SKY/WX TMP DP RH WIND PRES REMARKS
 
ANGOLA *+ FAIR 81 72 74 S10G16 29.81S  
AUBURN + FAIR 79 73 83 S3 29.82F  
FORT WAYNE PTSUNNY 81 73 76 S14G24 29.84F  
HUNTINGTON + FAIR N/A N/A N/A S8 29.85F  
KENDALLVILLE + FAIR 78 71 79 S13 29.83F  
 

 
 
INZ028-029-035-036-043>045-051>053-182200-  
WEST CENTRAL INDIANA  
 
CITY SKY/WX TMP DP RH WIND PRES REMARKS
 
CRAWFORDSVL + FAIR 88 76 69 S10 29.88F HX 99  
GREENCASTLE + FAIR 88 73 62 S12 29.89F HX 96  
LAFAYETTE FAIR 91 76 61 S9 29.84F HX 103  
TERRE HAUTE FAIR 91 77 63 S15 29.88F HX 104  
 

 
 
INZ030>032-037>040-046>048-054>057-064-065-182200-  
CENTRAL INDIANA  
 
CITY SKY/WX TMP DP RH WIND PRES REMARKS
 
COLUMBUS SUNNY 91 68 46 CALM 29.93F HX 95  
FISHERS *+ FAIR N/A N/A N/A S7 29.89F  
GREENWOOD *+ FAIR 91 71 52 SW6 29.91F HX 97  
INDIANAPOLIS FAIR 92 72 51 S13 29.89F HX 99  
-EAGLE CREEK FAIR 93 71 48 S9 29.87F HX 100  
KOKOMO + FAIR 88 79 74 SE12 29.86F HX 103  
MARION + FAIR N/A N/A N/A SE3 29.88F HAZE  
SHELBYVILLE FAIR 92 73 53 S10 29.91F HX 100  
ZIONSVILLE + FAIR 91 75 60 S7 29.89F HX 101  
 

 
 
INZ033-034-041-042-049-050-058-059-182200-  
EAST CENTRAL INDIANA  
 
CITY SKY/WX TMP DP RH WIND PRES REMARKS
 
MUNCIE FAIR 90 77 65 E12 29.90F HX 103  
PORTLAND + FAIR N/A N/A N/A S7 29.89F  
RICHMOND + FAIR 86 79 79 CALM 29.98S HX 99  
 

 
 
INZ060-061-067>069-081>083-085>088-182200-  
SOUTHWEST INDIANA  
 
CITY SKY/WX TMP DP RH WIND PRES REMARKS
 
EVANSVILLE FAIR 88 76 67 S10 29.94F HX 99  
HUNTINGBURG + LGT RAIN 89 78 70 S8 29.94F HX 103  
WASHINGTON + FAIR 90 78 66 S6 29.91F HX 104  
 

 
 
INZ062-063-066-070>080-084-089>092-182200-  
SOUTH CENTRAL AND SOUTHEAST INDIANA  
 
CITY SKY/WX TMP DP RH WIND PRES REMARKS
 
BATESVILLE + SUNNY 90 75 62 CALM 29.95F HX 100  
BEDFORD + N/A 91 73 55 SW3 29.92F HX 100  
BLOOMINGTON FAIR 91 77 63 W7 29.93F HX 104  
FRENCH LICK *+ FAIR 90 73 58 S5 29.94F HX 98  
JEFFERSONVL + FAIR 92 70 48 CALM 29.94S HX 97  
MADISON *+ FAIR 90 72 55 CALM 29.96F HX 96  
NORTH VERNON + FAIR 91 68 46 W6 29.94 HX 95  
 

 
 
 
 
CLICK HERE TO GO TO PREVIOUS BULLETINS.

The Nexlab IN Page Main Text Page